Madison, MN

7:33 PM CDT on September 21, 2019 (GMT -0500)
Madison-Lac Qui Parle County

Weather History for KDXX - July, 2019

Change the Weather History Date:

Wednesday, July 24, 2019

  Actual Average (WUND) Record (WUND)
Temperature  
Mean Temperature 72 °F -  
Max Temperature 84 °F - - (-1)
Min Temperature 59 °F - - (-1)
Cooling Degree Days 6    
Growing Degree Days 22 (Base 50)    
Moisture  
Dew Point 60 °F    
Average Humidity 68    
Maximum Humidity 100    
Minimum Humidity 40    
Precipitation  
Precipitation 0.00 in - - ()
Sea Level Pressure  
Sea Level Pressure 30.12 in    
Wind  
Wind Speed 3 mph (South)    
Max Wind Speed 14 mph    
Max Gust Speed 16 mph    
Visibility 10 miles    
Events      
Averages and records for this station are not official NWS values.
T = Trace of Precipitation, MM = Missing Value Source: NWS Daily Summary

Daily Weather History Graph

Daily Weather History Graph

Search for Another Location

Airport or City:

Astronomy

Jul. 24, 2019 Rise Set
Actual Time 6:01 AM CDT 9:00 PM CDT
Civil Twilight 5:26 AM CDT 9:35 PM CDT
Nautical Twilight 4:41 AM CDT 10:19 PM CDT
Astronomical Twilight 3:48 AM CDT 11:12 PM CDT
Moon 12:32 AM CDT (7/24) 1:31 PM CDT (7/24)
Length of Visible Light 16h 09m
Length of Day
14h 59m
Waning Gibbous, 53% of the Moon is Illuminated
Jul 24
Waning Gibbous
Jul 24
Last Quarter
Jul 31
New
Aug 7
First Quarter
Aug 15
Full

Hourly Weather History & Observations

Time (CDT) Temp. Heat Index Dew Point Humidity Pressure Visibility Wind Dir Wind Speed Gust Speed Precip Events Conditions
12:16 AM 68.0 °F - 62.6 °F 83% 30.19 in 10.0 mi Calm Calm - N/A   Clear
12:35 AM 66.2 °F - 62.6 °F 88% 30.19 in 10.0 mi Calm Calm - N/A   Clear
12:55 AM 66.2 °F - 62.6 °F 88% 30.19 in 10.0 mi Calm Calm - N/A   Clear
12:56 AM 64.4 °F - 62.6 °F 94% 30.19 in 10.0 mi Calm Calm - N/A   Clear
1:15 AM 66.2 °F - 62.6 °F 88% 30.19 in 10.0 mi SW 3.5 mph - N/A   Clear
1:20 AM 64.4 °F - 62.6 °F 94% 30.19 in 10.0 mi Calm Calm - N/A   Clear
1:37 AM 64.4 °F - 62.6 °F 94% 30.18 in 10.0 mi Calm Calm - N/A   Clear
1:55 AM 64.4 °F - 62.6 °F 94% 30.18 in 10.0 mi Calm Calm - N/A   Clear
2:15 AM 64.4 °F - 60.8 °F 88% 30.18 in 10.0 mi Calm Calm - N/A   Clear
2:35 AM 64.4 °F - 62.6 °F 94% 30.18 in 10.0 mi Calm Calm - N/A   Clear
2:36 AM 64.4 °F - 62.6 °F 94% 30.18 in 10.0 mi Calm Calm - N/A   Clear
2:58 AM 64.4 °F - 62.6 °F 94% 30.18 in 2.5 mi Calm Calm - N/A   Clear
3:17 AM 60.8 °F - 59.0 °F 94% 30.18 in 7.0 mi Calm Calm - N/A   Clear
3:35 AM 60.8 °F - 60.8 °F 100% 30.18 in 10.0 mi Calm Calm - N/A   Clear
3:36 AM 60.8 °F - 60.8 °F 100% 30.18 in 10.0 mi Calm Calm - N/A   Clear
3:55 AM 62.6 °F - 60.8 °F 94% 30.18 in 10.0 mi Calm Calm - N/A   Clear
3:56 AM 62.6 °F - 60.8 °F 94% 30.18 in 10.0 mi Calm Calm - N/A   Clear
4:19 AM 62.6 °F - 60.8 °F 94% 30.18 in 10.0 mi Calm Calm - N/A   Clear
4:36 AM 62.6 °F - 60.8 °F 94% 30.18 in 10.0 mi Calm Calm - N/A   Clear
4:55 AM 60.8 °F - 60.8 °F 100% 30.18 in 7.0 mi Calm Calm - N/A   Clear
4:56 AM 60.8 °F - 60.8 °F 100% 30.18 in 7.0 mi Calm Calm - N/A   Clear
5:15 AM 60.8 °F - 59.0 °F 94% 30.18 in 10.0 mi Calm Calm - N/A   Clear
5:16 AM 60.8 °F - 59.0 °F 94% 30.18 in 10.0 mi Calm Calm - N/A   Clear
5:35 AM 59.0 °F - 57.2 °F 94% 30.19 in 10.0 mi Calm Calm - N/A   Clear
5:57 AM 60.8 °F - 59.0 °F 94% 30.19 in 10.0 mi Calm Calm - N/A   Clear
6:15 AM 59.0 °F - 57.2 °F 94% 30.19 in 10.0 mi Calm Calm - N/A   Clear
6:35 AM 60.8 °F - 57.2 °F 88% 30.20 in 10.0 mi Calm Calm - N/A   Clear
6:55 AM 60.8 °F - 60.8 °F 100% 30.20 in 10.0 mi Calm Calm - N/A   Clear
6:56 AM 60.8 °F - 60.8 °F 100% 30.20 in 10.0 mi Calm Calm - N/A   Clear
7:18 AM 62.6 °F - 60.8 °F 94% 30.20 in 10.0 mi Calm Calm - N/A   Clear
7:37 AM 64.4 °F - 62.6 °F 94% 30.20 in 10.0 mi Calm Calm - N/A   Clear
7:56 AM 64.4 °F - 62.6 °F 94% 30.19 in 10.0 mi Calm Calm - N/A   Clear
8:15 AM 66.2 °F - 62.6 °F 88% 30.19 in 10.0 mi Calm Calm - N/A   Clear
8:16 AM 66.2 °F - 62.6 °F 88% 30.19 in 10.0 mi Calm Calm - N/A   Clear
8:35 AM 69.8 °F - 62.6 °F 78% 30.19 in 10.0 mi Calm Calm - N/A   Clear
8:57 AM 71.6 °F - 64.4 °F 78% 30.18 in 10.0 mi Calm Calm - N/A   Clear
9:16 AM 73.4 °F - 62.6 °F 69% 30.18 in 10.0 mi South 4.6 mph - N/A   Clear
9:35 AM 75.2 °F - 62.6 °F 65% 30.18 in 10.0 mi South 5.8 mph - N/A   Clear
9:36 AM 75.2 °F - 62.6 °F 65% 30.18 in 10.0 mi SSW 6.9 mph - N/A   Clear
9:55 AM 77.0 °F - 62.6 °F 61% 30.17 in 10.0 mi South 5.8 mph - N/A   Clear
9:56 AM 77.0 °F - 62.6 °F 61% 30.17 in 10.0 mi South 5.8 mph - N/A   Clear
10:18 AM 78.8 °F - 60.8 °F 54% 30.16 in 10.0 mi South 8.1 mph - N/A   Clear
10:36 AM 78.8 °F - 59.0 °F 51% 30.16 in 10.0 mi South 9.2 mph - N/A   Clear
10:55 AM 78.8 °F - 57.2 °F 47% 30.16 in 10.0 mi SSW 6.9 mph - N/A   Clear
11:15 AM 80.6 °F 80.8 °F 57.2 °F 45% 30.15 in 10.0 mi South 10.4 mph - N/A   Clear
11:16 AM 80.6 °F 80.8 °F 57.2 °F 45% 30.15 in 10.0 mi South 11.5 mph - N/A   Clear
11:35 AM 80.6 °F 80.8 °F 57.2 °F 45% 30.15 in 10.0 mi South 8.1 mph - N/A   Clear
11:40 AM 80.6 °F 80.8 °F 57.2 °F 45% 30.15 in 10.0 mi South 10.4 mph - N/A   Clear
11:57 AM 80.6 °F 81.1 °F 59.0 °F 48% 30.14 in 10.0 mi SSW 8.1 mph - N/A   Clear
12:15 PM 82.4 °F 82.5 °F 59.0 °F 45% 30.14 in 10.0 mi SSW 9.2 mph - N/A   Clear
12:35 PM 82.4 °F 82.5 °F 59.0 °F 45% 30.13 in 10.0 mi South 12.7 mph - N/A   Clear
12:55 PM 82.4 °F 82.0 °F 57.2 °F 42% 30.13 in 10.0 mi South 11.5 mph - N/A   Clear
12:56 PM 82.4 °F 82.0 °F 57.2 °F 42% 30.13 in 10.0 mi South 11.5 mph - N/A   Clear
1:18 PM 82.4 °F 82.0 °F 57.2 °F 42% 30.12 in 10.0 mi South 11.5 mph - N/A   Clear
1:37 PM 82.4 °F 82.0 °F 57.2 °F 42% 30.12 in 10.0 mi South 13.8 mph - N/A   Clear
1:56 PM 82.4 °F 82.5 °F 59.0 °F 45% 30.11 in 10.0 mi SSW 5.8 mph - N/A   Scattered Clouds
2:15 PM 82.4 °F 82.0 °F 57.2 °F 42% 30.10 in 10.0 mi South 9.2 mph - N/A   Scattered Clouds
2:16 PM 82.4 °F 82.5 °F 59.0 °F 45% 30.10 in 10.0 mi South 10.4 mph - N/A   Scattered Clouds
2:35 PM 82.4 °F 82.5 °F 59.0 °F 45% 30.10 in 10.0 mi South 6.9 mph 16.1 mph N/A   Clear
2:57 PM 84.2 °F 83.8 °F 59.0 °F 42% 30.09 in 10.0 mi SSW 9.2 mph - N/A   Clear
3:15 PM 84.2 °F 83.8 °F 59.0 °F 42% 30.09 in 10.0 mi South 8.1 mph - N/A   Scattered Clouds
3:35 PM 84.2 °F 83.8 °F 59.0 °F 42% 30.08 in 10.0 mi South 8.1 mph - N/A   Clear
3:55 PM 84.2 °F 84.4 °F 60.8 °F 45% 30.08 in 10.0 mi SSW 9.2 mph - N/A   Clear
3:56 PM 84.2 °F 83.8 °F 59.0 °F 42% 30.08 in 10.0 mi SSW 9.2 mph - N/A   Clear
4:18 PM 84.2 °F 84.4 °F 60.8 °F 45% 30.08 in 10.0 mi SSE 9.2 mph - N/A   Clear
4:37 PM 84.2 °F 83.5 °F 57.2 °F 40% 30.08 in 10.0 mi South 10.4 mph - N/A   Clear
4:56 PM 84.2 °F 83.5 °F 57.2 °F 40% 30.07 in 10.0 mi South 10.4 mph - N/A   Clear
5:35 PM 84.2 °F 83.5 °F 57.2 °F 40% 30.06 in 10.0 mi SSE 9.2 mph - N/A   Clear
5:39 PM 84.2 °F 83.8 °F 59.0 °F 42% 30.06 in 10.0 mi South 11.5 mph - N/A   Clear
5:57 PM 84.2 °F 83.8 °F 59.0 °F 42% 30.06 in 10.0 mi South 10.4 mph - N/A   Clear
6:16 PM 84.2 °F 84.4 °F 60.8 °F 45% 30.05 in 10.0 mi South 9.2 mph - N/A   Clear
6:35 PM 82.4 °F 82.5 °F 59.0 °F 45% 30.05 in 10.0 mi South 9.2 mph 16.1 mph N/A   Clear
6:36 PM 82.4 °F 82.5 °F 59.0 °F 45% 30.05 in 10.0 mi South 9.2 mph - N/A   Clear
6:55 PM 82.4 °F 82.9 °F 60.8 °F 48% 30.04 in 10.0 mi SSE 9.2 mph - N/A   Clear
6:56 PM 82.4 °F 82.9 °F 60.8 °F 48% 30.04 in 10.0 mi SSE 10.4 mph - N/A   Clear
7:18 PM 80.6 °F 81.5 °F 60.8 °F 51% 30.04 in 10.0 mi South 10.4 mph 16.1 mph N/A   Clear
7:36 PM 80.6 °F 81.5 °F 60.8 °F 51% 30.05 in 10.0 mi South 5.8 mph - N/A   Clear
7:55 PM 80.6 °F 81.5 °F 60.8 °F 51% 30.04 in 10.0 mi South 8.1 mph - N/A   Clear
8:15 PM 78.8 °F - 60.8 °F 54% 30.04 in 10.0 mi South 6.9 mph - N/A   Clear
8:35 PM 75.2 °F - 60.8 °F 61% 30.04 in 10.0 mi South 5.8 mph - N/A   Clear
8:39 PM 75.2 °F - 60.8 °F 61% 30.04 in 10.0 mi South 5.8 mph - N/A   Clear
8:58 PM 73.4 °F - 60.8 °F 65% 30.04 in 10.0 mi South 5.8 mph - N/A   Clear
9:15 PM 73.4 °F - 60.8 °F 65% 30.04 in 10.0 mi South 5.8 mph - N/A   Clear
9:35 PM 71.6 °F - 60.8 °F 69% 30.04 in 10.0 mi South 4.6 mph - N/A   Clear
9:36 PM 71.6 °F - 60.8 °F 69% 30.04 in 10.0 mi South 4.6 mph - N/A   Clear
9:55 PM 69.8 °F - 60.8 °F 73% 30.03 in 10.0 mi South 6.9 mph - N/A   Clear
9:56 PM 69.8 °F - 60.8 °F 73% 30.03 in 10.0 mi South 6.9 mph - N/A   Clear
10:18 PM 69.8 °F - 60.8 °F 73% 30.03 in 10.0 mi South 5.8 mph - N/A   Clear
10:37 PM 69.8 °F - 60.8 °F 73% 30.03 in 10.0 mi SSE 5.8 mph - N/A   Clear
10:56 PM 69.8 °F - 60.8 °F 73% 30.02 in 10.0 mi SSE 6.9 mph - N/A   Clear
11:15 PM 69.8 °F - 60.8 °F 73% 30.01 in 10.0 mi SSE 9.2 mph - N/A   Clear
11:16 PM 69.8 °F - 60.8 °F 73% 30.01 in 10.0 mi SSE 9.2 mph - N/A   Clear
11:35 PM 69.8 °F - 60.8 °F 73% 30.01 in 10.0 mi SSE 8.1 mph - N/A   Clear
11:40 PM 69.8 °F - 60.8 °F 73% 30.01 in 10.0 mi SSE 9.2 mph - N/A   Clear
11:57 PM 69.8 °F - 60.8 °F 73% 30.01 in 10.0 mi SSE 8.1 mph - N/A   Clear